Date String (YYYY-MM-DD hh:mm:ss) UTC,Instrument flags,absolute air pressure of the measurement (hPa),sample flow rate (lpm),inlet stack bypass flow (lpm),air temperature of the measurement (°C),ambient temperature measured by the external sensor (°C),aerosol sample conditioner tube jacket temperature (°C),OPC LED temperature (°C),internal box temperature (°C),relative humidity of the measurement (%),span deviation,mass concentration of particles derived from Lorenz-Mie calculation of OPC scattering (μg/m³),mass concentration of particles derived from Lorenz-Mie calculation of OPC scattering (μg/m³),mass concentration of particles derived from Lorenz-Mie calculation of OPC scattering (μg/m³)
DateTimeUTC,F1_M11,P_M11,Q1_M11,Q2_M11,T1_M11,T2_M11,T3_M11,T4_M11,T5_M11,U1_M11,ZSPAN_M11,X2_M11,X0_M11,X1_M11
2024-01-06 01:00:00,SystemResetWarning,0823.0,4.99,000.00,022.4,021.5,000.0,030.7,023.7,8.9,0000.0,0003.87,0006.91,0003.56
2024-01-06 01:01:00,SystemResetWarning,0823.0,4.99,000.00,022.4,021.5,000.0,030.7,023.7,8.8,0000.0,0003.88,0006.69,0003.54
2024-01-06 01:02:00,SystemResetWarning,0823.0,4.99,000.00,022.4,021.5,000.0,030.7,023.7,8.8,0000.0,0003.84,0006.21,0003.52
2024-01-06 01:03:00,SystemResetWarning,0823.0,5.00,000.00,022.4,021.5,000.0,030.7,023.6,8.7,0000.0,0003.80,0006.21,0003.48
2024-01-06 01:04:00,SystemResetWarning,0823.0,5.00,000.00,022.4,021.5,000.0,030.7,023.6,8.7,0000.0,0003.76,0006.18,0003.43
2024-01-06 01:05:00,SystemResetWarning,0822.9,5.01,000.00,022.4,021.5,000.0,030.7,023.6,8.5,0000.0,0003.71,0006.13,0003.36
2024-01-06 01:06:00,SystemResetWarning,0823.0,5.01,000.00,022.4,021.5,000.0,030.7,023.6,8.4,0000.0,0003.65,0006.11,0003.29
2024-01-06 01:07:00,SystemResetWarning,0823.1,5.00,000.00,022.4,021.4,000.0,030.7,023.6,8.3,0000.0,0003.58,0006.26,0003.22
2024-01-06 01:08:00,SystemResetWarning,0822.9,4.99,000.00,022.4,021.4,000.0,030.7,023.7,8.3,0000.0,0003.46,0005.89,0003.13
2024-01-06 01:09:00,SystemResetWarning,0822.9,5.00,000.00,022.4,021.4,000.0,030.7,023.7,8.2,0000.0,0003.33,0005.48,0003.00
2024-01-06 01:10:00,SystemResetWarning,0823.0,4.99,000.00,022.4,021.4,000.0,030.7,023.7,8.1,0000.0,0003.21,0005.18,0002.81
2024-01-06 01:11:00,SystemResetWarning,0823.0,4.99,000.00,022.4,021.4,000.0,030.7,023.6,8.1,0000.0,0003.12,0004.78,0002.65
2024-01-06 01:12:00,SystemResetWarning,0823.2,5.01,000.00,022.4,021.4,000.0,030.7,023.6,8.1,0000.0,0002.97,0004.82,0002.51
2024-01-06 01:13:00,SystemResetWarning,0823.1,5.01,000.00,022.4,021.3,000.0,030.7,023.6,8.1,0000.0,0002.83,0004.69,0002.39
2024-01-06 01:14:00,SystemResetWarning,0823.2,4.99,000.00,022.4,021.3,000.0,030.7,023.6,8.0,0000.0,0002.66,0005.19,0002.28
2024-01-06 01:15:00,SystemResetWarning,0823.2,5.00,000.00,022.4,021.3,000.0,030.7,023.6,8.0,0000.0,0002.54,0006.02,0002.18
2024-01-06 01:16:00,SystemResetWarning,0822.9,5.00,000.00,022.4,021.3,000.0,030.7,023.6,7.9,0000.0,0002.43,0005.91,0002.08
2024-01-06 01:17:00,SystemResetWarning,0823.0,4.99,000.00,022.4,021.3,000.0,030.7,023.6,7.9,0000.0,0002.33,0005.67,0001.99
2024-01-06 01:18:00,SystemResetWarning,0823.1,4.99,000.00,022.3,021.3,000.0,030.7,023.6,7.8,0000.0,0002.24,0005.24,0001.92
2024-01-06 01:19:00,SystemResetWarning,0823.0,5.00,000.00,022.3,021.3,000.0,030.7,023.6,7.7,0000.0,0002.16,0005.12,0001.86
2024-01-06 01:20:00,SystemResetWarning,0823.1,5.00,000.00,022.3,021.3,000.0,030.7,023.6,7.7,0000.0,0002.15,0005.21,0001.81
2024-01-06 01:21:00,SystemResetWarning,0822.9,5.00,000.00,022.3,021.3,000.0,030.7,023.6,7.6,0000.0,0002.14,0005.25,0001.78
2024-01-06 01:22:00,SystemResetWarning,0823.1,5.01,000.00,022.3,021.3,000.0,030.7,023.6,7.5,0000.0,0002.11,0005.13,0001.75
2024-01-06 01:23:00,SystemResetWarning,0823.2,5.00,000.00,022.3,021.3,000.0,030.6,023.6,7.5,0000.0,0002.05,0004.84,0001.71
2024-01-06 01:24:00,SystemResetWarning,0823.0,5.00,000.00,022.3,021.3,000.0,030.6,023.6,7.5,0000.0,0001.99,0004.74,0001.66
2024-01-06 01:25:00,SystemResetWarning,0823.4,5.00,000.00,022.3,021.3,000.0,030.6,023.6,7.5,0000.0,0001.94,0004.90,0001.59
2024-01-06 01:26:00,SystemResetWarning,0822.9,5.00,000.00,022.3,021.3,000.0,030.6,023.5,7.5,0000.0,0001.90,0003.51,0001.54
2024-01-06 01:27:00,SystemResetWarning,0822.9,5.00,000.00,022.3,021.2,000.0,030.6,023.6,7.4,0000.0,0001.90,0003.48,0001.52
2024-01-06 01:28:00,SystemResetWarning,0822.9,5.00,000.00,022.3,021.2,000.0,030.6,023.6,7.4,0000.0,0001.87,0003.44,0001.50
2024-01-06 01:29:00,SystemResetWarning,0822.9,4.99,000.00,022.3,021.2,000.0,030.6,023.6,7.5,0000.0,0001.81,0003.77,0001.48
2024-01-06 01:30:00,SystemResetWarning,0822.9,4.99,000.00,022.3,021.2,000.0,030.6,023.5,7.5,0000.0,0001.77,0004.46,0001.46
2024-01-06 01:31:00,SystemResetWarning,0823.0,5.00,000.00,022.3,021.2,000.0,030.6,023.5,7.5,0000.0,0001.75,0004.40,0001.44
2024-01-06 01:32:00,SystemResetWarning,0822.9,5.00,000.00,022.3,021.2,000.0,030.6,023.5,7.5,0000.0,0001.72,0004.34,0001.42
2024-01-06 01:33:00,SystemResetWarning,0822.9,5.00,000.00,022.3,021.2,000.0,030.6,023.5,7.5,0000.0,0001.69,0004.33,0001.39
2024-01-06 01:34:00,SystemResetWarning,0822.9,5.00,000.00,022.3,021.2,000.0,030.6,023.5,7.5,0000.0,0001.62,0004.21,0001.36
2024-01-06 01:35:00,SystemResetWarning,0823.0,5.00,000.00,022.3,021.2,000.0,030.6,023.5,7.5,0000.0,0001.54,0003.94,0001.31
2024-01-06 01:36:00,SystemResetWarning,0823.0,5.00,000.00,022.3,021.1,000.0,030.6,023.5,7.5,0000.0,0001.48,0003.40,0001.27
2024-01-06 01:37:00,SystemResetWarning,0823.0,5.00,000.00,022.3,021.1,000.0,030.6,023.5,7.5,0000.0,0001.44,0003.21,0001.24
2024-01-06 01:38:00,SystemResetWarning,0822.9,5.00,000.00,022.2,021.1,000.0,030.6,023.5,7.5,0000.0,0001.34,0003.05,0001.19
2024-01-06 01:39:00,SystemResetWarning,0823.0,5.00,000.00,022.2,021.1,000.0,030.6,023.5,7.4,0000.0,0001.28,0002.98,0001.14
2024-01-06 01:40:00,SystemResetWarning,0822.9,5.00,000.00,022.2,021.1,000.0,030.6,023.5,7.3,0000.0,0001.26,0002.57,0001.11
2024-01-06 01:41:00,SystemResetWarning,0823.0,5.00,000.00,022.2,021.1,000.0,030.6,023.5,7.3,0000.0,0001.25,0001.84,0001.08
2024-01-06 01:42:00,SystemResetWarning,0823.0,5.00,000.00,022.2,021.1,000.0,030.5,023.5,7.3,0000.0,0001.20,0001.77,0001.05
2024-01-06 01:43:00,SystemResetWarning,0823.0,5.00,000.00,022.2,021.1,000.0,030.5,023.5,7.3,0000.0,0001.15,0001.65,0001.02
2024-01-06 01:44:00,SystemResetWarning,0823.0,5.01,000.00,022.2,021.2,000.0,030.5,023.5,7.2,0000.0,0001.11,0001.57,0001.00
2024-01-06 01:45:00,SystemResetWarning,0823.4,5.00,000.00,022.2,021.2,000.0,030.5,023.5,7.3,0000.0,0001.09,0001.54,0000.98
2024-01-06 01:46:00,SystemResetWarning,0823.0,5.00,000.00,022.2,021.2,000.0,030.5,023.5,7.3,0000.0,0001.08,0001.54,0000.97
2024-01-06 01:47:00,SystemResetWarning,0822.9,5.00,000.00,022.2,021.2,000.0,030.5,023.5,7.3,0000.0,0001.05,0001.44,0000.96
2024-01-06 01:48:00,SystemResetWarning,0823.0,5.00,000.00,022.2,021.2,000.0,030.5,023.5,7.3,0000.0,0001.04,0001.39,0000.95
2024-01-06 01:49:00,SystemResetWarning,0823.0,5.00,000.00,022.2,021.2,000.0,030.5,023.5,7.4,0000.0,0001.05,0001.40,0000.95
2024-01-06 01:50:00,SystemResetWarning,0823.0,5.01,000.00,022.2,021.2,000.0,030.5,023.5,7.4,0000.0,0001.06,0001.46,0000.95
2024-01-06 01:51:00,SystemResetWarning,0823.0,5.00,000.00,022.2,021.2,000.0,030.5,023.5,7.3,0000.0,0001.05,0001.51,0000.93
2024-01-06 01:52:00,SystemResetWarning,0822.9,5.00,000.00,022.2,021.2,000.0,030.5,023.5,7.3,0000.0,0001.01,0001.45,0000.92
2024-01-06 01:53:00,SystemResetWarning,0823.0,5.00,000.00,022.2,021.2,000.0,030.5,023.5,7.3,0000.0,0001.01,0002.44,0000.90
2024-01-06 01:54:00,SystemResetWarning,0823.0,4.99,000.00,022.2,021.2,000.0,030.5,023.5,7.3,0000.0,0001.02,0003.94,0000.90
2024-01-06 01:55:00,SystemResetWarning,0823.0,4.99,000.00,022.2,021.2,000.0,030.5,023.4,7.3,0000.0,0001.01,0003.92,0000.89
2024-01-06 01:56:00,SystemResetWarning,0823.0,4.99,000.00,022.2,021.2,000.0,030.5,023.5,7.3,0000.0,0001.00,0003.93,0000.88
2024-01-06 01:57:00,SystemResetWarning,0823.0,5.00,000.00,022.2,021.2,000.0,030.5,023.5,7.3,0000.0,0001.00,0003.94,0000.87
2024-01-06 01:58:00,SystemResetWarning,0823.0,5.01,000.00,022.2,021.2,000.0,030.5,023.5,7.4,0000.0,0001.00,0003.94,0000.88
2024-01-06 01:59:00,SystemResetWarning,0823.0,5.01,000.00,022.2,021.2,000.0,030.5,023.5,7.4,0000.0,0000.99,0003.90,0000.88
